This is the latest recevied weather packets stored in our database for station/object 9W2CHF-4. If no packets are shown the sender has not sent any weather packets the latest 10 day(s).
| Time | Temp. | Humidity | Pressure | Rain* | Wind** | Luminosity | Snow |
|---|---|---|---|---|---|---|---|
| 1778090918 | 31.67° C | 92% | 1009.3 hPa | - | - | - | - |
| 1778088218 | 31.67° C | 91% | 1009.6 hPa | - | - | - | - |
| 1778083718 | 31.11° C | 98% | 1010.3 hPa | - | - | - | - |
| 1778082818 | 31.11° C | 99% | 1010.5 hPa | - | - | - | - |
| 1778081018 | 31.11° C | 96% | 1010.4 hPa | - | - | - | - |
| 1778080118 | 31.11° C | 96% | 1010.6 hPa | - | - | - | - |
| 1778072917 | 31.11° C | 95% | 1009 hPa | - | - | - | - |
| 1778072017 | 31.11° C | 95% | 1008.9 hPa | - | - | - | - |
| 1778071116 | 31.11° C | 94% | 1008.9 hPa | - | - | - | - |
| 1778070216 | 31.11° C | 92% | 1008.8 hPa | - | - | - | - |
| 1778069316 | 31.67° C | 90% | 1008.6 hPa | - | - | - | - |
| 1778068416 | 31.11° C | 87% | 1008.4 hPa | - | - | - | - |
| 1778067516 | 31.67° C | 77% | 1008.3 hPa | - | - | - | - |
| 1778066616 | 32.22° C | 71% | 1008 hPa | - | - | - | - |
| 1778064816 | 31.67° C | 59% | 1007.7 hPa | - | - | - | - |
| 1778062114 | 31.67° C | 58% | 1007.3 hPa | - | - | - | - |
| 1778060313 | 32.22° C | 63% | 1007 hPa | - | - | - | - |
| 1778057622 | 32.78° C | 83% | 1007 hPa | - | - | - | - |
| 1778056722 | 32.78° C | 84% | 1007 hPa | - | - | - | - |
| 1778055822 | 32.22° C | 84% | 1007.1 hPa | - | - | - | - |
| 1778054921 | 32.22° C | 86% | 1007.1 hPa | - | - | - | - |
| 1778053121 | 32.22° C | 87% | 1007.5 hPa | - | - | - | - |
| 1778052221 | 32.22° C | 86% | 1007.6 hPa | - | - | - | - |
| 1778051321 | 32.22° C | 84% | 1007.8 hPa | - | - | - | - |
| 1778050421 | 32.22° C | 86% | 1007.9 hPa | - | - | - | - |
* Rain since midnight (hover to see other rain measurements)
** Current wind speed in m/s (hover to see current wind gust speed)